Weather History for KCNU - June, 2013

Change the Weather History Date:

Friday, June 28, 2013

  Actual Average Record
Temperature  
Mean Temperature 78 °F 78 °F  
Max Temperature 91 °F 88 °F 102 °F (1936)
Min Temperature 64 °F 68 °F 55 °F (1974)
Degree Days  
Heating Degree Days 0 0  
Month to date heating degree days 10 4  
Since 1 June heating degree days 10 4  
Since 1 July heating degree days 4322 4481  
Cooling Degree Days 13 13  
Month to date cooling degree days 299 267  
Year to date cooling degree days 422 400  
Since 1 June cooling degree days 299 267  
Growing Degree Days 31 (Base 50)    
Moisture  
Dew Point 64 °F    
Average Humidity 62    
Maximum Humidity 90    
Minimum Humidity 34    
Precipitation  
Precipitation 0.00 in 0.17 in 2.65 in (1943)
Month to date precipitation 4.12 5.71  
Year to date precipitation 21.84 22.11  
Sea Level Pressure  
Sea Level Pressure 29.90 in    
Wind  
Wind Speed 8 mph (NNW)    
Max Wind Speed 21 mph    
Max Gust Speed 29 mph    
Visibility 10 miles    
Events      
T = Trace of Precipitation, MM = Missing Value Source: NWS Daily Summary

Daily Weather History Graph

Daily Weather History Graph

Search for Another Location

Airport or City:

Trip Planner

Search our weather history database for the weather conditions in past years. The results will help you decide how hot, cold, wet, or windy it might be!

Date:

Astronomy

Jun. 28, 2013 Rise Set
Actual Time 6:02 AM CDT 8:47 PM CDT
Civil Twilight 5:31 AM CDT 9:18 PM CDT
Nautical Twilight 4:52 AM CDT 9:57 PM CDT
Astronomical Twilight 4:08 AM CDT 10:41 PM CDT
Moon No Moon Rise 12:04 PM CDT (6/28)
Length of Visible Light 15h 47m
Length of Day
14h 44m
Waning Gibbous, 66% of the Moon is Illuminated
Jun 28
Waning Gibbous
Jun 29
Last Quarter
Jul 8
New
Jul 15
First Quarter
Jul 22
Full

Hourly Weather History & Observations

Time (CDT) Temp. Heat Index Dew Point Humidity Pressure Visibility Wind Dir Wind Speed Gust Speed Precip Events Conditions
12:06 AM 80.6 °F 82.7 °F 66.2 °F 61% 29.83 in 10.0 mi SE 16.1 mph 19.6 mph N/A   Mostly Cloudy
12:52 AM 81.0 °F 82.2 °F 63.0 °F 54% 29.87 in 10.0 mi North 6.9 mph 17.3 mph N/A   Clear
1:52 AM 73.9 °F - 66.0 °F 76% 29.87 in 10.0 mi North 9.2 mph - N/A   Clear
2:52 AM 73.9 °F - 70.0 °F 87% 29.89 in 10.0 mi North 8.1 mph - N/A   Clear
3:52 AM 73.0 °F - 68.0 °F 84% 29.89 in 10.0 mi North 4.6 mph - N/A   Clear
4:52 AM 71.1 °F - 68.0 °F 90% 29.91 in 10.0 mi North 3.5 mph - N/A   Clear
5:52 AM 71.1 °F - 68.0 °F 90% 29.92 in 10.0 mi North 4.6 mph - N/A   Clear
6:52 AM 71.1 °F - 68.0 °F 90% 29.93 in 10.0 mi NNW 5.8 mph - N/A   Clear
7:52 AM 73.9 °F - 69.1 °F 85% 29.94 in 10.0 mi North 9.2 mph - N/A   Clear
8:52 AM 78.1 °F - 69.1 °F 74% 29.96 in 10.0 mi NNW 8.1 mph - N/A   Clear
9:52 AM 82.0 °F 84.9 °F 68.0 °F 62% 29.96 in 10.0 mi NNW 3.5 mph - N/A   Clear
10:52 AM 84.0 °F 86.5 °F 66.9 °F 56% 29.95 in 10.0 mi Variable 3.5 mph - N/A   Clear
11:52 AM 88.0 °F 89.6 °F 64.9 °F 46% 29.96 in 10.0 mi NW 10.4 mph - N/A   Scattered Clouds
12:52 PM 88.0 °F 88.7 °F 63.0 °F 43% 29.94 in 10.0 mi NNW 9.2 mph - N/A   Partly Cloudy
1:52 PM 90.0 °F 92.8 °F 66.9 °F 46% 29.91 in 10.0 mi WNW 11.5 mph - N/A   Clear
2:52 PM 88.0 °F 90.7 °F 66.9 °F 49% 29.90 in 10.0 mi NW 16.1 mph 24.2 mph N/A   Mostly Cloudy
3:52 PM 91.0 °F 92.6 °F 64.0 °F 41% 29.88 in 10.0 mi North 13.8 mph 23.0 mph N/A   Clear
4:52 PM 90.0 °F 90.0 °F 61.0 °F 38% 29.88 in 10.0 mi North 17.3 mph 25.3 mph N/A   Clear
5:52 PM 89.1 °F 88.0 °F 57.9 °F 35% 29.87 in 10.0 mi NNW 17.3 mph 24.2 mph N/A   Clear
6:52 PM 87.1 °F 85.7 °F 55.9 °F 35% 29.87 in 10.0 mi NNW 12.7 mph 21.9 mph N/A   Clear
7:52 PM 84.0 °F 83.5 °F 57.9 °F 41% 29.87 in 10.0 mi NNW 8.1 mph - N/A   Clear
8:52 PM 79.0 °F - 57.9 °F 48% 29.87 in 10.0 mi NNW 5.8 mph - N/A   Clear
9:52 PM 75.0 °F - 57.9 °F 55% 29.87 in 10.0 mi NNW 4.6 mph - N/A   Clear
10:52 PM 73.9 °F - 57.9 °F 57% 29.88 in 10.0 mi NNW 3.5 mph - N/A   Clear
11:52 PM 71.1 °F - 57.9 °F 63% 29.88 in 10.0 mi Calm Calm - N/A   Clear